Location: Mohawk View
(42.7837°N, 73.7885°W)
Time: 16:29:24
(UTC+00:00)

Cosmos 1741 Rocket - Pass Details

Date: 17 June 2021
Orbit: 761 x 783 km, 74.0° (Epoch: 01 August)

Event Time Altitude Azimuth Distance (km) Brightness Sun altitude
Rises 02:37:58 0° 336° (NNW) 3,245 9.0 -16.6°
Reaches altitude 10° 02:40:22 10° 333° (NNW) 2,318 7.8 -16.8°
Maximum altitude 02:45:31 59° 255° (WSW) 889 4.4 -17.3°
Enters shadow 02:48:32 25° 184° (S) 1,531 5.1 -17.6°
